Location: Ebendorf
(52.1827°N, 11.5706°E)
Time: 12:23:25
(UTC+00:00)

Cosmos 2233 Rocket - Pass Details

Date: 15 May 2021
Orbit: 952 x 991 km, 82.9° (Epoch: 14 June)

Event Time Altitude Azimuth Distance (km) Brightness Sun altitude
Rises 01:49:55 0° 347° (NNW) 3,678 7.6 -10.9°
Reaches altitude 10° 01:52:29 10° 344° (NNW) 2,721 6.8 -10.6°
Maximum altitude 01:58:33 58° 267° (W) 1,114 4.1 -10.1°
Drops below altitude 10° 02:04:32 10° 190° (S) 2,680 5.8 -9.5°
Enters shadow 02:05:35 - 188° (S) 3,071 6.1 -9.3°
